Location: Brede
(50.9167°N, 0.6000°E)
Time: 03:16:15
(UTC+00:00)

Tiros 1 despin weight - Visible Passes

Search period start: 19 May 2021 00:00
Search period end: 29 May 2021 00:00
Orbit: 593 x 642 km, 48.2° (Epoch: 18 May)

Date Brightness Start Highest point End Pass type
(mag) Time Alt. Az. Time Alt. Az. Time Alt. Az.
19 May ? 20:40:10 10° W 20:44:48 63° S 20:49:27 10° ESE visible
19 May ? 22:21:40 10° W 22:26:03 40° SSW 22:27:29 31° SSE visible
20 May ? 00:04:15 10° WSW 00:04:30 11° WSW 00:04:30 11° WSW visible
20 May ? 20:56:26 10° W 21:01:02 57° S 21:05:38 10° ESE visible
20 May ? 22:38:06 10° W 22:42:07 28° SSW 22:42:41 28° SSW visible
21 May ? 21:12:44 10° W 21:17:14 47° SSW 21:20:54 15° SE visible
21 May ? 22:54:48 10° W 22:57:55 19° SW 22:57:55 19° SW visible
22 May ? 21:29:05 10° W 21:33:21 35° SSW 21:36:09 18° SSE visible
22 May ? 23:12:25 10° WSW 23:13:11 11° SW 23:13:11 11° SW visible
23 May ? 21:45:36 10° W 21:49:23 24° SSW 21:51:27 18° S visible
24 May ? 22:02:31 10° WSW 22:05:19 16° SW 22:06:47 14° SSW visible
25 May ? 20:36:33 10° W 20:40:38 30° SSW 20:44:43 10° SSE visible
26 May ? 20:53:10 10° W 20:56:38 21° SW 21:00:05 10° SSE visible
27 May ? 21:10:28 10° WSW 21:12:30 13° SW 21:14:33 10° SSW visible
